Location: Piotrkow Trybunalski
(51.4000°N, 19.6830°E)
Time: 22:21:13
(UTC+02:00)

STRAND 1 - Visible Passes

Search period start: 30 March 2023 00:00
Search period end: 09 April 2023 00:00
Orbit: 766 x 780 km, 98.4° (Epoch: 30 March)

Date Brightness Start Highest point End Pass type
(mag) Time Alt. Az. Time Alt. Az. Time Alt. Az.
30 Mar ? 04:42:50 10° E 04:46:02 17° NE 04:49:15 10° NNE visible
30 Mar ? 20:03:14 10° N 20:08:20 70° WNW 20:13:23 10° SSW visible
30 Mar ? 21:44:00 10° NNW 21:46:38 14° NW 21:49:14 10° W visible
31 Mar ? 05:45:18 10° SE 05:50:11 46° ENE 05:55:04 10° N visible
31 Mar ? 21:08:40 10° N 21:12:40 24° WNW 21:16:39 10° WSW visible
01 Apr ? 05:11:49 10° ESE 05:16:02 27° ENE 05:20:15 10° N visible
01 Apr ? 20:33:47 10° N 20:38:33 41° WNW 20:43:16 10° SW visible
02 Apr ? 04:39:00 10° E 04:42:02 16° NE 04:45:03 10° NNE visible
02 Apr ? 19:59:10 10° NNE 20:04:16 75° WNW 20:09:20 10° SSW visible
02 Apr ? 21:39:47 10° NNW 21:42:37 15° NW 21:45:26 10° W visible
03 Apr ? 21:04:31 10° N 21:08:38 25° WNW 21:12:44 10° WSW visible
04 Apr ? 05:07:52 10° ESE 05:12:00 25° ENE 05:16:07 10° N visible
04 Apr ? 20:29:40 10° N 20:34:30 44° WNW 20:39:17 10° SW visible
05 Apr ? 04:35:11 10° E 04:38:01 15° NE 04:40:50 10° NNE visible
05 Apr ? 19:55:04 10° NNE 20:00:11 80° WNW 20:05:16 10° SSW visible
05 Apr ? 21:35:34 10° NNW 21:38:35 16° NW 21:41:37 10° W visible
06 Apr ? 21:00:22 10° N 21:04:35 27° WNW 21:08:47 10° WSW visible
07 Apr ? 05:03:57 10° ESE 05:07:56 24° ENE 05:11:57 10° N visible
07 Apr ? 20:25:33 10° N 20:30:25 47° WNW 20:35:16 10° SW visible
08 Apr ? 04:31:22 10° E 04:33:59 14° NE 04:36:35 10° NNE visible
08 Apr ? 21:31:21 10° NNW 21:34:33 17° NW 21:37:45 10° W visible
